EXPRESS-AT1 (39612 NORAD) Tracking and Keplerian Element Data

This shows tracking and keplerian element data for the satellite.

Feedback or suggestion? Click here.




ElementValue
Catalog39612
NameEXPRESS-AT1
Epoch Orbit3982
Epoch Day34.74738872
Epoch Year2025
RAAN95.2898
Inclination0.0148
Eccentricity3.49E-05
Argument of Perigee71.7869
Mean Anonmoly292.1216
Mean Motion1.00271993
Decay Rate8.3E-07
L11 39612U 14010A 25034.74738872 .00000083 00000+0 00000+0 0 9996
L22 39612 0.0148 95.2898 0000349 71.7869 292.1216 1.00271993 39828



Live tracking and technical data element details for EXPRESS-AT1 (NORAD 39612). EXPRESS-AT1 can be tracked NOW for your location showing map with azimuth and elevation plus other details from your city location.







IsCatalogInMostPopularTable: catalog: 39612, numindb: 573
Update: records affected: 1



GetName: 39612 EXPRESS-AT1

Hit Count: updated at: Sat, 24 May 2025 16:46:47 GMT